Time,TemperatureF,DewpointF,PressureIn,WindDirection,WindDirectionDegrees,WindSpeedMPH,WindSpeedGustMPH,Humidity,HourlyPrecipIn,Conditions,Clouds,dailyrainin,SoftwareType,DateUTC
2013-11-19 00:17:00,37.3,26.6,26.70,West,279,0.0,0.0,65,0.00,,,-99.99,VWS V12.07,2013-11-19 05:17:00,
2013-11-19 00:47:00,36.7,27.5,26.70,West,273,0.0,0.0,69,0.00,,,-99.99,VWS V12.07,2013-11-19 05:47:00,
2013-11-19 01:17:00,36.0,26.5,26.69,West,260,0.0,0.0,68,0.00,,,-99.99,VWS V12.07,2013-11-19 06:17:00,
2013-11-19 01:47:00,35.5,26.4,26.68,West,273,0.0,0.0,69,0.00,,,-99.99,VWS V12.07,2013-11-19 06:47:00,
2013-11-19 02:17:00,35.0,26.2,26.68,WSW,240,0.0,0.0,70,0.00,,,-99.99,VWS V12.07,2013-11-19 07:17:00,
2013-11-19 02:47:00,34.9,26.1,26.68,SSW,200,0.0,0.0,70,0.00,,,-99.99,VWS V12.07,2013-11-19 07:47:00,
2013-11-19 03:18:00,34.5,25.4,26.69,SW,232,0.0,0.0,69,0.00,,,-99.99,VWS V12.07,2013-11-19 08:18:00,
2013-11-19 03:48:00,33.8,24.7,26.69,SW,223,0.0,0.0,69,0.00,,,-99.99,VWS V12.07,2013-11-19 08:48:00,
2013-11-19 04:17:00,33.2,24.1,26.70,West,268,0.0,0.0,69,0.00,,,-99.99,VWS V12.07,2013-11-19 09:17:00,
2013-11-19 04:48:00,32.7,23.3,26.70,SW,224,0.0,0.0,68,0.00,,,-99.99,VWS V12.07,2013-11-19 09:48:00,
2013-11-19 05:17:00,31.9,23.6,26.69,NNW,335,0.0,0.0,71,0.00,,,-99.99,VWS V12.07,2013-11-19 10:17:00,
2013-11-19 05:47:00,31.5,23.2,26.70,West,270,0.0,0.0,71,0.00,,,-99.99,VWS V12.07,2013-11-19 10:47:00,
2013-11-19 06:17:00,31.2,21.9,26.71,WNW,282,0.0,0.0,68,0.00,,,-99.99,VWS V12.07,2013-11-19 11:17:00,
2013-11-19 06:48:00,30.5,22.6,26.73,SSW,207,0.0,0.0,72,0.00,,,-99.99,VWS V12.07,2013-11-19 11:48:00,
2013-11-19 07:17:00,29.7,22.4,26.74,SW,220,0.0,0.0,74,0.00,,,-99.99,VWS V12.07,2013-11-19 12:17:00,
2013-11-19 07:47:00,30.8,23.2,26.76,SW,223,0.0,0.0,73,0.00,,,-99.99,VWS V12.07,2013-11-19 12:47:00,
2013-11-19 08:17:00,32.7,24.0,26.77,WNW,285,0.0,0.0,70,0.00,,,-99.99,VWS V12.07,2013-11-19 13:17:00,
2013-11-19 08:48:00,34.3,25.5,26.78,SSE,164,0.0,0.0,70,0.00,,,-99.99,VWS V12.07,2013-11-19 13:48:00,
2013-11-19 09:17:00,35.3,25.1,26.80,SW,219,0.0,0.0,66,0.00,,,-99.99,VWS V12.07,2013-11-19 14:17:00,
2013-11-19 09:48:00,36.6,25.2,26.82,NNW,334,0.0,0.0,63,0.00,,,-99.99,VWS V12.07,2013-11-19 14:48:00,
2013-11-19 10:17:00,38.5,25.8,26.82,WNW,303,0.0,0.0,60,0.00,,,-99.99,VWS V12.07,2013-11-19 15:17:00,
2013-11-19 10:48:00,38.6,24.3,26.82,WSW,256,0.0,0.0,56,0.00,,,-99.99,VWS V12.07,2013-11-19 15:48:00,
2013-11-19 11:17:00,40.5,26.0,26.82,NW,305,0.0,0.0,56,0.00,,,-99.99,VWS V12.07,2013-11-19 16:17:00,
2013-11-19 11:47:00,42.3,27.7,26.82,SW,228,0.0,0.0,56,0.00,,,-99.99,VWS V12.07,2013-11-19 16:47:00,
2013-11-19 12:17:00,42.3,23.5,26.81,North,358,0.0,0.0,47,0.00,,,-99.99,VWS V12.07,2013-11-19 17:17:00,
2013-11-19 12:47:00,42.6,23.8,26.80,ENE,70,0.0,0.0,47,0.00,,,-99.99,VWS V12.07,2013-11-19 17:47:00,
2013-11-19 13:17:00,43.2,26.3,26.80,ENE,72,0.0,0.0,51,0.00,,,-99.99,VWS V12.07,2013-11-19 18:17:00,
2013-11-19 13:47:00,45.1,26.1,26.80,SSW,206,0.0,0.0,47,0.00,,,-99.99,VWS V12.07,2013-11-19 18:47:00,
2013-11-19 14:17:00,46.1,24.9,26.79,SW,221,0.0,0.0,43,0.00,,,-99.99,VWS V12.07,2013-11-19 19:17:00,
2013-11-19 14:47:00,46.7,25.4,26.79,SSE,154,0.0,0.0,43,0.00,,,-99.99,VWS V12.07,2013-11-19 19:47:00,
2013-11-19 15:17:00,46.7,24.8,26.79,SSE,154,0.0,0.0,42,0.00,,,-99.99,VWS V12.07,2013-11-19 20:17:00,
2013-11-19 15:47:00,46.8,24.9,26.80,SSE,153,0.0,0.0,42,0.00,,,-99.99,VWS V12.07,2013-11-19 20:47:00,
2013-11-19 16:17:00,45.1,25.6,26.81,SSE,155,0.0,0.0,46,0.00,,,-99.99,VWS V12.07,2013-11-19 21:17:00,
2013-11-19 16:51:00,42.7,23.9,26.81,SSE,156,0.0,0.0,47,0.00,,,-99.99,VWS V12.07,2013-11-19 21:51:00,
2013-11-19 17:17:00,40.6,24.4,26.82,SSE,157,0.0,0.0,52,0.00,,,-99.99,VWS V12.07,2013-11-19 22:17:00,
2013-11-19 17:48:00,37.6,25.0,26.83,SSE,156,0.0,0.0,60,0.00,,,-99.99,VWS V12.07,2013-11-19 22:48:00,
2013-11-19 18:17:00,35.6,24.6,26.83,SSE,158,0.0,0.0,64,0.00,,,-99.99,VWS V12.07,2013-11-19 23:17:00,
2013-11-19 18:47:00,34.5,26.1,26.82,SSE,157,0.0,0.0,71,0.00,,,-99.99,VWS V12.07,2013-11-19 23:47:00,
2013-11-19 19:17:00,34.8,26.4,26.85,SSE,159,0.0,0.0,71,0.00,,,-99.99,VWS V12.07,2013-11-20 00:17:00,
2013-11-19 19:47:00,34.2,26.5,26.85,SSE,157,0.0,0.0,73,0.00,,,-99.99,VWS V12.07,2013-11-20 00:47:00,
2013-11-19 20:17:00,32.5,25.8,26.84,SSE,157,0.0,0.0,76,0.00,,,-99.99,VWS V12.07,2013-11-20 01:17:00,
2013-11-19 20:48:00,33.2,25.5,26.86,SSE,157,0.0,0.0,73,0.00,,,-99.99,VWS V12.07,2013-11-20 01:48:00,
2013-11-19 21:17:00,33.2,26.1,26.88,SSE,157,0.0,0.0,75,0.00,,,-99.99,VWS V12.07,2013-11-20 02:17:00,
2013-11-19 21:47:00,32.9,26.5,26.89,SSE,156,0.0,0.0,77,0.00,,,-99.99,VWS V12.07,2013-11-20 02:47:00,
2013-11-19 22:17:00,34.0,26.3,26.90,SSE,156,0.0,0.0,73,0.00,,,-99.99,VWS V12.07,2013-11-20 03:17:00,
2013-11-19 22:47:00,34.3,25.5,26.90,East,84,0.0,0.0,70,0.00,,,-99.99,VWS V12.07,2013-11-20 03:47:00,
2013-11-19 23:17:00,35.1,26.0,26.89,SSE,160,0.0,0.0,69,0.00,,,-99.99,VWS V12.07,2013-11-20 04:17:00,
2013-11-19 23:48:00,35.1,26.0,26.90,ENE,66,0.0,0.0,69,0.00,,,-99.99,VWS V12.07,2013-11-20 04:48:00,